Regional Weather Roundup
Issued by NWS

Home | Current Version | Previous Version | Text Only | Print | Product List | Glossary Off
Versions: 1 2 3 4 5 6 7 8 9 10 11 12 13 14 15 16 17 18 19 20 21 22 23 24 25 26 27 28 29 30 31 32 33 34 35 36 37 38 39 40 41 42 43 44 45 46 47 48 49 50

845
ASUS44 KJAN 260310
RWRMS

MISSISSIPPI HOURLY WEATHER ROUNDUP
NATIONAL WEATHER SERVICE JACKSON MS
1000 PM CDT WED MAR 25 2015

NOTE: "FAIR: INDICATES FEW OR NO CLOUDS BELOW 12,000 FEET WITH NO
SIGNIFICANT WEATHER AND/OR OBSTRUCTIONS TO VISIBILITY.

MSZ001>002-007>008-010>013-018>021-025>028-034>036-260400-
NORTHWEST MISSISSIPPI

CITY           SKY/WX    TMP DP  RH WIND       PRES   REMARKS
CLARKSDALE     FAIR      68  57  68 S8        29.89R
CLEVELAND      FAIR      66  60  83 S5        29.89R
GREENWOOD      FAIR      69  54  58 S9        29.89F
GREENVILLE     FAIR      65  56  72 S9        29.88R
OLIVE BRANCH   CLEAR     64  57  77 S6        29.89S
OXFORD         FAIR      64  54  68 SE5       29.92S
TUNICA         FAIR      63  55  77 SE8       29.88S
$$

MSZ003>006-009-014>017-022>024-029>033-037>039-260400-
NORTHEAST MISSISSIPPI

CITY           SKY/WX    TMP DP  RH WIND       PRES   REMARKS
COLUMBUS AFB   FAIR      64  55  74 SE8       29.93F
CORINTH        FAIR      63  55  77 SE5       29.91S
GOLDN TRIANGLE FAIR      68  54  60 S13       29.92F
STARKVILLE     FAIR      64  55  72 SE6       29.93F
TUPELO         FAIR      69  53  56 S7        29.92R
$$

MSZ040-058-260400-
CENTRAL MISSISSIPPI

CITY           SKY/WX    TMP DP  RH WIND       PRES   REMARKS
JACKSON INTL   FAIR      68  58  70 S10       29.94R
JACKSON HAWKNS FAIR      66  56  70 S8        29.94R
MERIDIAN KEY   FAIR      68  59  73 S10       29.96F
MERIDIAN NAS   MOCLDY    70  55  60 S3        29.93F
RAYMOND        FAIR      68  63  83 S8        29.93R
VICKSBURG      FAIR      71  55  56 S10       29.92S
$$

MSZ059>079-260400-
SOUTH MISSISSIPPI

CITY           SKY/WX    TMP DP  RH WIND       PRES   REMARKS
BROOKHAVEN     FAIR      68  61  77 S7        29.98S
HATTIESBURG    FAIR      67  59  75 S8        30.01S
MCCOMB         FAIR      64  57  78 S9        29.98R
NATCHEZ        FAIR      66  55  68 S9        29.95S
PINE BELT      FAIR      64  55  72 S8        30.01R
$$

MSZ080>082-260400-
COASTAL MISSISSIPPI

CITY           SKY/WX    TMP DP  RH WIND       PRES   REMARKS
BILOXI         FAIR      69  65  87 S7        30.01S
PASCAGOULA     FOG       63  63 100 CALM      30.02S VSB 1
GULFPORT       FAIR      68  64  87 S5        30.01S
$$



USA.gov is the U.S. government's official web portal to all federal, state and local government web resources and services.